This demonstration page uses our WeatherBlox Daily Observations layout. Learn more.

Left ArrowRight Arrow

Hourly Observations for August 28, 2015

Temp ( °F °C ) Dew Point ( °F °C ) Humidity (%) Winds ( mph kmh ) Pressure ( in mb ) Visibility ( mi km ) Precip ( " mm )
12:51 am 00:51 Clear 71 21.7 67 19.4 87 87 NE 6 9 29.91 1013 10 16 0.00 0.00
1:51 am 01:51 Clear 71 21.7 66 18.9 84 84 NNW 7 11 29.89 1012 10 16 0.00 0.00
2:51 am 02:51 Clear 69 20.6 66 18.9 90 90 Calm 29.88 1012 10 16 0.00 0.00
3:51 am 03:51 Clear 68 20 66 18.9 93 93 ENE 3 6 29.88 1012 10 16 0.00 0.00
4:51 am 04:51 Clear 67 19.4 65 18.3 93 93 Calm 29.89 1012 10 16 0.00 0.00
5:51 am 05:51 Sunny 67 19.4 65 18.3 93 93 Calm 29.93 1013 10 16 0.00 0.00
6:51 am 06:51 Sunny 69 20.6 66 18.9 90 90 S 3 6 29.95 1014 10 16 0.00 0.00
7:51 am 07:51 Sunny 74 23.3 63 17.2 69 69 S 3 6 29.95 1014 10 16 0.00 0.00
8:51 am 08:51 Sunny 76 24.4 62 16.7 62 62 Calm 29.94 1014 10 16 0.00 0.00
9:51 am 09:51 Sunny 81 27.2 62 16.7 53 53 VRB 3 6 29.92 1013 10 16 0.00 0.00
10:51 am 10:51 Sunny 85 29.4 62 16.7 46 46 NW 7 11 29.91 1013 10 16 0.00 0.00
11:51 am 11:51 Sunny 89 31.7 59 15 36 36 WNW 8 13 29.88 1012 10 16 0.00 0.00
12:51 pm 12:51 Sunny 92 33.3 56 13.3 30 30 WNW 9 15 29.84 1011 10 16 0.00 0.00
1:51 pm 13:51 Sunny 94 34.4 53 11.7 25 25 W 9 15 29.81 1009 10 16 0.00 0.00
2:51 pm 14:51 Sunny 97 36.1 54 12.2 24 24 SW 8 13 29.77 1008 10 16 0.00 0.00
3:51 pm 15:51 Sunny 99 37.2 50 10 19 19 VRB 7 11 29.75 1008 10 16 0.00 0.00
4:12 pm 16:12 Sunny with Nearby Thunderstorms 98 36.7 49 9.4 19 19 W 5 7 29.62 1003 10 16 0.00 0.00
4:27 pm 16:27 Sunny 98 36.7 48 8.9 18 18 WNW 6 9 29.65 1004 10 16 0.00 0.00
4:39 pm 16:39 Sunny with Nearby Thunderstorms 98 36.7 48 8.9 18 18 NW 3 6 29.65 1004 10 16 0.00 0.00
4:51 pm 16:51 Sunny 98 36.7 50 10 20 20 W 3 6 29.75 1008 10 16 0.00 0.00
5:51 pm 17:51 Sunny 97 36.1 53 11.7 23 23 VRB 5 7 29.76 1008 10 16 0.00 0.00
6:51 pm 18:51 Clear 91 32.8 53 11.7 27 27 E 5 7 29.76 1008 10 16 0.00 0.00
7:51 pm 19:51 Clear 86 30 58 14.4 39 39 ENE 6 9 29.78 1009 10 16 0.00 0.00
8:51 pm 20:51 Clear 85 29.4 58 14.4 40 40 Calm 29.81 1009 10 16 0.00 0.00
9:51 pm 21:51 Clear 80 26.7 63 17.2 56 56 NW 5 7 29.81 1009 10 16 0.00 0.00
10:51 pm 22:51 Clear 78 25.6 61 16.1 56 56 NW 6 9 29.81 1009 10 16 0.00 0.00
11:51 pm 23:51 Clear 77 25 63 17.2 62 62 SSE 6 9 29.81 1010 10 16 0.00 0.00

Powered by AerisWeather